Weather in Gwacheon

South Korea     37°25′45″N   126°59′33″E
temp.,
°C
wind,
m/s
gust,
m/s
humid.,
%
clouds,
%
prec.,
mm/h
press.,
hPa
HPBL,
m
10 may, mon
mon1000:00+14s114354 0.0 101111
03:00+13sw1145100 0.0 101213
06:00+13wsw3558100 0.4 1014272
09:00+10sse2483100 6.8 1015363
12:00+10s2284100 4.9 1017410
15:00+12e3571100 6.5 1014606
18:00+13ese2364100 0.0 1014574
21:00+11e1174100 0.0 101539
11 may, tue
tue1100:00+11e127999 0.0 101559
03:00+10e227829 0.0 101557
06:00+9e237747 0.0 101578
09:00+16ene254454 0.0 1015394
12:00+23ese46225 0.0 10141251
15:00+26se46195 0.0 10121881
18:00+24sse572669 0.0 10121302
21:00+19se4122833 0.0 1014665
12 may, wed
wed1200:00+17ese3103494 0.0 1014451
03:00+15e294399 0.0 1014386
06:00+13ene254999 0.0 1014194
09:00+19e372853 0.0 1013571
12:00+24ese463039 0.0 10121139
15:00+27se233111 0.0 10101559
18:00+25wsw2340100 0.0 1010476
21:00+22w0151100 0.0 101119
13 may, thu
thu1300:00+21ese1155100 0.0 101111
03:00+19e116056 0.0 101117
06:00+18ene11672 0.0 101238
09:00+22ene12500 0.0 1012488
12:00+27nne12350 0.0 10111346
15:00+30wnw11290 0.0 10092027
18:00+27w44370 0.0 1009572
21:00+24wsw12480 0.0 101095
14 may, fri
fri1400:00+22s12540 0.0 101133
03:00+20se11600 0.0 101114
06:00+19se11660 0.0 101128
09:00+24se11510 0.0 1012579
12:00+28ssw23380 0.0 10101196
15:00+30wsw34320 0.0 10081784
18:00+27w444132 0.0 1008549
21:00+22wsw2355100 0.0 1010352